Location: São Paulo
(23.5507°S, 46.6334°W)
Time: 06:32:47
(UTC-03:00)

Explorer 7 - Pass Details

Date: 25 February 2026
Orbit: 430 x 541 km, 50.2° (Epoch: 10 March)

Event Time Altitude Azimuth Distance (km) Brightness Sun altitude
Rises 00:07:06 0° 274° (W) 2,703 - -57.2°
Reaches altitude 10° 00:10:25 10° 246° (WSW) 1,818 - -57.3°
Maximum altitude 00:12:25 13° 217° (SW) 1,625 - -57.3°
Drops below altitude 10° 00:14:25 10° 188° (S) 1,817 - -57.3°
Sets 00:17:45 0° 160° (SSE) 2,701 - -57.3°
